Location: Wildcat Hills Observatory
(41.6350°N, 103.6812°W)
Time: 04:01:33
(UTC-06:00)

Cosmos 1766 Rocket - Pass Details

Date: 23 June 2018
Orbit: 605 x 633 km, 82.5° (Epoch: 20 July)

Event Time Altitude Azimuth Distance (km) Brightness Sun altitude
Exits shadow 23:46:05 53° 231° (SW) 779 3.8 -22.9°
Maximum altitude 23:46:53 64° 279° (W) 703 3.8 -22.9°
Drops below altitude 10° 23:51:21 10° 2° (N) 2,024 7.2 -23.2°
Sets 23:53:37 0° 5° (N) 2,938 8.2 -23.3°
